Location: Great Snoring
(52.8667°N, 0.8833°E)
Time: 11:53:21
(UTC+00:00)

CZ-4C R/B - Pass Details

Date: 19 May 2025
Orbit: 501 x 1482 km, 63.4° (Epoch: 11 June)

Event Time Altitude Azimuth Distance (km) Brightness Sun altitude
Rises 21:14:40 0° 310° (NW) 3,780 7.5 -9.5°
Reaches altitude 10° 21:17:25 10° 300° (WNW) 2,971 6.3 -9.7°
Maximum altitude 21:23:32 30° 243° (WSW) 2,086 4.3 -10.3°
Drops below altitude 10° 21:30:39 10° 187° (S) 3,483 4.9 -10.9°
Enters shadow 21:32:25 - 182° (S) 4,004 5.2 -11.0°
